Theta_e
336 340 341 338 337 340 341 340 341 341 341 341 341 342 342 341 340 339 339 338 337 337 337 337 337 336 335 335 335 336 335 334 335 336 335 334 335 336 336 336 336 336 335 334 335 335 335 333 334 337 336 336 336 336 337 336 337 337 336 336 335 334 334 335 335 335 335 334 334 334 333 333 332 332 332 333 333 333 333 333 332 332 331 332 332
339 341 342 340 338 340 341 339 340 340 340 341 341 342 341 340 340 339 339 337 337 337 336 337 336 336 336 336 335 335 335 335 335 336 335 334 334 336 336 335 335 335 334 334 334 334 334 333 335 337 336 335 335 336 337 337 336 337 336 335 334 334 334 335 335 335 334 333 333 333 333 332 331 331 332 331 332 333 334 333 332 332 331 331 331
340 341 343 342 340 340 339 339 339 339 341 341 342 342 340 340 339 339 338 337 337 337 336 337 336 335 337 336 336 336 336 336 336 335 335 334 334 335 335 334 334 334 334 334 334 334 335 335 336 337 336 336 336 336 336 335 335 335 335 334 333 333 334 335 335 335 334 333 332 332 333 333 331 331 332 331 331 331 332 333 332 332 332 331 331
339 339 339 341 341 339 339 340 340 340 341 339 339 341 340 339 339 339 338 336 336 336 336 336 335 334 335 335 335 336 336 336 335 334 334 334 334 335 335 334 334 334 334 334 333 334 336 336 336 336 336 336 336 336 334 334 334 334 334 334 333 333 333 334 334 334 334 333 332 331 332 332 331 332 332 332 332 331 331 333 332 331 331 331 331
338 337 332 335 340 340 339 340 340 341 342 338 335 337 338 338 339 338 336 335 335 335 336 335 334 334 335 335 335 335 335 335 335 334 333 334 334 334 335 335 334 335 335 334 334 336 337 336 336 336 336 336 336 335 334 334 334 333 333 334 334 333 332 333 334 334 334 332 332 331 331 332 332 333 332 332 333 332 330 331 331 331 331 331 331
334 335 331 332 339 341 339 339 339 341 341 336 332 334 336 336 337 335 333 334 335 336 336 335 335 335 335 335 335 335 334 334 335 333 332 333 333 334 335 336 336 336 336 335 335 336 337 337 337 336 336 336 335 335 334 334 333 333 333 333 333 333 332 332 333 334 333 333 333 332 331 332 332 332 332 331 331 331 330 330 330 331 331 330 330
330 334 334 334 339 342 342 340 340 340 337 332 330 332 335 336 336 335 333 334 335 336 336 336 335 336 335 335 335 336 335 334 333 332 333 334 334 335 337 337 336 335 335 335 334 334 336 338 337 336 336 336 335 335 334 334 333 333 332 332 332 333 332 331 332 333 333 333 334 333 332 332 331 330 332 331 330 331 331 330 329 330 330 330 330
331 334 338 338 341 342 342 341 340 339 335 332 331 332 335 337 337 336 335 334 335 335 335 335 335 335 334 334 334 335 334 333 333 332 333 336 337 337 337 336 335 334 333 334 334 333 335 336 336 336 336 335 334 334 335 333 332 332 333 333 333 332 331 331 332 333 333 333 334 333 332 332 330 330 331 331 331 331 330 330 330 331 331 330 330
333 335 338 341 341 342 342 342 341 339 335 334 335 335 335 336 337 336 334 334 334 335 335 335 336 335 334 333 334 334 333 332 333 332 332 336 338 337 335 334 334 334 333 333 333 333 334 334 334 334 334 333 332 333 334 334 334 334 334 334 332 332 332 332 332 333 333 332 332 332 332 331 330 331 331 331 332 331 329 329 330 331 330 330 329
333 337 339 341 341 341 341 342 340 339 337 336 337 337 336 336 337 335 333 333 333 333 334 335 335 335 335 335 334 333 333 333 333 332 334 337 337 335 334 334 334 334 333 333 332 332 332 332 332 332 332 331 330 330 331 332 334 334 333 332 332 331 332 333 332 334 334 332 331 332 332 331 331 332 332 332 331 330 330 329 329 330 329 329 328
335 339 340 340 341 340 340 341 340 339 338 339 339 337 336 337 337 334 333 333 333 333 335 335 335 335 335 334 332 332 334 333 332 333 335 336 335 334 334 334 333 333 333 333 332 332 332 331 331 331 330 330 329 329 329 329 330 330 330 331 332 332 332 333 333 333 333 332 332 333 333 332 331 331 331 331 329 329 330 330 329 329 328 328 328
337 338 338 339 339 340 341 341 340 338 338 339 339 338 337 337 337 335 334 334 334 335 335 334 335 334 334 333 332 331 333 333 333 333 334 334 334 334 334 333 333 333 333 332 332 332 331 331 330 330 329 329 329 328 328 327 327 328 329 329 331 333 334 334 334 331 331 332 333 333 332 330 330 330 329 329 329 329 329 329 329 328 328 328 327
338 338 338 338 338 340 341 340 340 339 339 339 338 338 338 337 338 337 335 335 335 336 335 335 335 334 333 333 332 331 332 332 333 333 333 333 333 333 333 332 332 332 331 331 330 330 330 330 329 328 328 328 328 328 327 327 327 328 328 328 330 333 334 334 333 331 330 331 332 332 331 329 329 330 328 329 330 328 329 329 328 328 328 327 326
337 336 336 336 337 339 340 340 340 340 340 339 338 337 337 337 337 337 336 335 334 335 336 335 335 335 334 333 332 332 331 331 332 332 332 332 332 331 331 330 330 330 330 328 329 329 329 328 328 327 327 327 328 328 327 327 327 327 327 328 331 333 334 333 333 332 330 330 330 330 330 329 328 329 329 329 329 328 329 328 328 328 327 326 325
335 334 334 335 337 339 339 339 339 339 340 339 338 337 337 336 337 338 337 335 333 333 334 335 335 335 333 333 333 331 329 330 332 331 331 330 330 330 330 329 329 330 329 328 328 328 328 328 327 327 327 327 327 327 327 327 327 326 327 328 330 332 333 333 333 333 332 331 331 329 329 329 328 329 329 328 328 329 329 328 328 327 325 324 323
333 333 334 336 338 338 338 339 339 339 339 339 338 337 337 336 337 338 337 336 334 333 333 335 335 334 333 332 332 331 330 331 332 330 330 331 330 330 329 329 329 329 329 328 328 328 327 327 327 326 327 326 326 326 326 326 327 326 327 328 328 328 330 330 330 331 331 332 332 330 329 329 329 329 328 328 328 328 328 327 327 326 324 323 322
333 334 334 336 337 337 338 338 338 338 339 338 337 337 337 336 337 337 337 336 335 334 332 333 333 333 333 333 332 331 331 332 331 331 331 330 329 329 329 329 328 328 329 328 328 327 326 326 326 326 326 326 326 326 325 325 326 326 327 327 327 326 327 327 326 327 328 330 332 331 330 329 329 329 327 328 328 327 326 325 324 323 323 323 322
333 334 335 335 336 337 337 337 337 337 338 337 337 337 337 336 336 337 336 335 335 335 333 332 331 330 331 331 331 332 332 331 332 332 330 329 328 329 329 328 328 328 329 328 327 326 326 325 324 325 326 326 326 325 324 324 324 325 325 325 325 325 325 325 325 326 327 329 330 331 330 329 329 329 328 329 329 327 325 323 322 322 322 322 321
335 335 335 335 336 337 336 335 336 336 337 337 336 336 336 336 336 336 336 335 334 335 336 335 334 333 332 332 333 333 331 330 330 330 328 328 328 328 328 328 328 328 328 327 326 326 325 323 324 325 325 325 325 324 323 324 324 324 324 324 324 324 323 323 323 325 326 328 330 331 330 329 330 330 329 329 328 325 323 322 321 320 321 321 321
334 334 334 334 334 335 335 335 336 335 335 336 336 336 336 336 336 335 335 335 333 334 336 335 335 336 335 334 334 332 330 330 329 327 327 328 328 327 327 327 327 327 327 326 326 326 324 323 323 323 324 325 325 324 322 323 323 322 322 322 322 321 320 321 322 323 325 326 329 331 331 330 330 330 329 328 325 323 321 320 320 320 320 319 320
332 332 332 333 334 335 334 334 336 335 334 333 333 335 336 335 334 332 332 334 333 334 335 334 334 336 335 333 332 331 330 329 328 327 328 329 328 327 327 327 326 326 326 326 326 325 324 323 322 321 322 323 324 324 323 322 322 322 321 321 319 319 319 320 321 323 323 324 326 328 330 331 330 329 328 326 323 321 321 319 319 319 318 318 318
328 328 329 330 331 333 334 334 334 333 330 328 330 333 334 332 330 328 328 330 331 333 334 333 333 335 333 332 331 331 330 329 329 328 328 328 328 327 326 325 325 326 326 326 326 324 323 322 321 320 319 320 322 324 323 322 322 322 321 319 318 319 320 320 321 322 323 324 325 327 330 331 329 328 326 324 322 321 320 320 319 318 318 317 317
325 326 327 329 329 330 331 331 331 330 327 327 329 331 332 331 329 327 326 327 329 331 332 331 332 333 331 330 331 331 330 329 328 328 327 327 327 327 326 324 324 325 326 325 324 323 322 322 320 319 318 318 321 323 323 322 321 320 319 318 319 319 320 320 321 321 322 323 324 326 328 329 327 325 324 323 322 320 320 320 319 319 319 318 317
325 326 327 327 328 329 329 330 331 330 327 327 328 329 330 329 328 327 327 328 329 330 330 330 332 333 331 330 331 330 330 328 326 327 327 326 327 327 325 324 323 324 325 324 324 323 322 322 321 319 318 318 320 322 322 321 319 318 318 319 320 320 320 320 320 320 322 323 323 324 326 326 325 324 323 322 322 321 320 320 320 320 320 320 319
324 325 325 326 327 328 329 330 330 329 328 329 328 328 328 328 327 327 327 328 329 329 330 329 330 331 329 329 330 329 329 328 326 327 328 327 327 326 325 323 322 322 323 324 324 324 323 322 321 318 317 318 320 320 320 320 319 318 319 320 320 320 320 320 320 320 320 321 322 323 323 324 324 323 322 322 322 321 320 321 321 321 321 321 320
323 324 324 325 326 327 328 328 328 328 329 329 327 327 328 327 326 326 326 327 328 328 328 328 328 329 328 328 330 330 330 329 327 327 327 327 326 326 325 324 323 322 323 324 323 323 323 322 320 319 317 318 319 319 319 319 319 319 320 320 320 320 320 320 319 319 320 320 321 321 322 323 323 323 322 323 322 321 321 321 321 320 320 320 320
322 323 323 323 324 325 326 325 325 326 327 327 327 327 327 326 326 326 326 327 328 328 327 326 327 329 330 330 329 329 330 329 328 327 327 326 326 325 324 324 323 322 322 322 322 322 322 322 320 318 317 317 318 319 319 320 320 320 320 320 320 320 320 320 320 320 320 320 320 320 320 320 321 322 322 322 322 321 321 320 319 319 319 319 320
319 320 321 321 321 322 323 322 323 324 324 325 325 325 325 325 325 326 326 327 327 328 327 326 328 329 329 328 328 327 328 329 328 328 327 326 326 325 324 323 323 322 322 320 320 321 321 320 319 318 318 317 318 319 319 319 319 320 320 321 320 321 321 321 322 322 322 322 321 321 320 320 321 321 321 322 322 321 321 320 320 320 319 319 319
317 316 317 318 318 319 320 320 320 321 321 322 322 323 323 324 324 325 326 326 327 328 327 327 327 328 327 327 327 327 327 328 328 328 328 327 325 325 324 322 322 322 321 320 319 319 319 320 320 319 318 319 320 320 320 319 319 319 320 321 321 321 322 322 323 323 323 323 323 322 323 323 322 321 320 320 321 320 320 321 322 322 321 321 320
314 313 313 313 314 316 317 318 318 318 318 319 319 320 320 320 321 322 324 325 325 325 326 327 327 327 327 326 327 326 326 326 326 326 326 326 326 325 324 322 322 321 320 319 318 318 319 321 321 321 321 321 322 322 320 319 319 320 321 322 322 322 323 323 323 324 323 323 323 324 324 323 321 319 319 319 319 319 319 319 321 322 322 322 322
312 311 310 309 311 312 313 314 315 315 315 315 316 317 317 317 317 319 321 324 324 324 325 325 326 326 326 325 325 325 325 325 324 324 324 325 325 325 324 324 323 322 321 320 319 319 320 320 321 322 322 322 323 323 320 318 319 320 322 323 323 322 323 323 323 324 324 324 324 324 325 323 321 320 320 320 320 319 319 319 319 319 319 320 320
310 310 309 308 308 310 311 311 311 312 312 312 313 314 314 314 314 315 318 320 321 322 323 323 324 324 324 324 323 323 324 324 324 323 323 323 323 323 323 323 324 322 322 322 321 321 321 321 321 322 322 323 323 322 319 318 319 320 321 324 324 323 324 324 324 324 324 324 325 325 326 326 325 324 323 323 323 322 320 320 320 319 319 319 318
309 308 307 307 307 308 308 308 309 310 310 310 311 311 311 312 312 313 315 316 317 318 319 321 323 323 322 322 322 323 322 322 322 321 319 319 320 319 319 319 320 319 319 320 321 321 320 320 320 321 322 323 322 319 317 317 317 318 319 321 323 324 325 324 324 324 324 324 324 325 325 326 326 326 324 324 324 324 324 322 321 320 319 319 319
307 306 305 306 307 307 306 306 306 307 308 309 309 308 309 311 311 311 312 313 313 314 315 317 320 322 322 322 321 321 321 321 320 319 318 318 317 317 317 316 316 316 316 317 318 317 316 315 314 315 319 323 322 319 318 317 317 317 317 318 320 323 325 326 325 325 325 325 324 325 325 325 325 325 324 324 324 324 324 324 323 322 321 320 320
305 304 305 305 306 306 305 305 304 304 305 307 307 308 309 310 310 309 309 310 311 311 311 312 314 317 320 321 322 322 321 321 321 320 320 319 317 315 316 316 316 317 315 316 319 320 317 315 314 316 320 322 321 320 319 318 318 318 318 318 319 322 325 326 325 324 324 324 325 325 324 324 324 324 323 324 324 323 323 324 324 324 323 322 321
303 304 303 304 304 304 305 304 304 304 304 304 305 306 307 308 309 308 307 307 308 309 309 310 311 312 314 316 319 321 321 321 321 321 321 321 318 317 317 318 319 319 318 318 320 321 319 319 319 320 322 323 321 320 319 319 319 319 319 319 319 321 323 324 324 322 322 323 325 325 324 324 324 324 323 323 323 323 322 322 322 322 322 322 321
303 303 303 302 302 303 304 304 303 304 303 303 303 304 305 306 307 307 307 306 306 307 307 308 309 310 310 312 315 318 319 320 320 320 320 320 319 319 319 319 319 320 320 320 321 322 321 321 321 321 321 322 321 319 319 319 319 319 319 319 320 322 323 322 322 321 322 324 325 324 323 324 324 324 323 323 323 323 322 322 321 321 321 321 321
302 302 302 302 302 302 302 302 303 303 303 303 303 303 303 304 304 305 305 305 305 305 305 306 307 308 309 310 311 313 316 318 319 319 319 319 319 319 320 320 320 320 321 321 322 322 321 321 321 320 321 321 320 319 319 319 319 319 319 319 320 321 322 321 321 322 323 323 323 323 323 323 323 323 322 323 323 322 322 322 322 321 320 320 320
301 301 301 300 301 300 301 301 302 302 303 303 303 303 303 302 303 303 304 304 304 304 304 305 306 307 308 308 309 310 312 314 315 315 316 317 317 318 319 320 320 320 321 321 321 321 320 319 319 319 319 318 318 318 318 318 318 318 319 319 319 320 320 319 321 321 322 322 321 321 321 321 321 320 320 321 321 321 320 321 321 321 320 319 320
300 300 300 299 299 299 300 300 301 301 302 303 303 303 303 303 302 302 302 303 303 303 303 303 304 305 306 307 308 308 309 310 311 312 312 314 315 316 317 318 318 319 319 318 318 318 318 317 317 317 317 315 315 316 317 317 317 317 318 317 318 319 319 318 319 320 320 320 320 319 318 319 320 319 318 317 318 319 319 319 320 320 320 319 319
300 300 300 299 299 299 299 299 299 300 301 302 303 303 303 303 303 302 302 301 301 301 301 302 303 304 304 305 306 307 308 308 309 310 310 311 312 313 314 315 315 316 316 315 315 315 315 314 313 314 313 312 311 311 312 312 313 314 315 315 316 317 316 316 317 317 317 317 317 318 317 317 318 316 314 314 315 317 317 317 318 319 319 318 317
299 299 299 299 300 299 299 299 299 300 300 301 302 302 302 303 302 302 302 302 301 301 300 300 301 302 303 303 304 305 306 307 308 309 309 309 310 311 312 312 312 313 313 313 312 312 311 311 311 310 308 307 306 306 306 307 308 308 309 311 312 313 313 313 316 317 316 316 316 317 316 315 314 312 309 309 312 314 316 317 318 319 319 318 317
299 299 299 299 300 300 299 300 300 299 299 300 300 301 301 301 302 302 302 302 302 301 300 300 300 301 301 301 302 303 303 304 306 307 308 308 309 309 310 310 311 312 312 312 312 311 310 310 310 309 307 305 304 304 303 303 304 304 305 305 307 308 308 310 312 314 315 314 314 314 313 313 312 310 308 307 308 309 311 314 315 317 319 319 317
299 299 299 299 300 300 300 300 300 300 300 299 300 299 299 300 300 300 301 301 302 302 301 301 300 300 299 299 300 301 300 301 302 304 304 305 306 306 307 308 309 310 310 311 311 312 311 310 309 309 308 307 307 307 304 302 301 301 301 301 302 303 304 305 308 310 312 313 312 311 310 310 309 309 308 308 307 306 307 309 311 313 316 318 317
299 299 299 300 300 300 300 300 300 300 300 300 299 299 299 299 299 299 299 300 301 301 302 302 302 302 301 300 300 300 300 300 301 302 302 302 303 303 304 305 306 307 307 307 308 308 309 309 308 308 308 307 307 308 306 303 300 299 299 299 299 299 300 300 303 305 306 307 307 306 306 305 306 306 306 307 307 308 307 306 307 309 312 315 314
299 299 299 300 300 300 300 300 300 300 300 300 300 300 299 299 299 299 299 299 300 301 301 302 302 302 302 302 302 301 302 302 302 301 301 302 302 302 302 303 303 304 304 304 304 304 305 305 305 305 305 304 305 306 305 302 299 297 297 297 296 297 298 298 300 302 304 304 304 302 301 302 303 305 306 306 306 307 307 306 307 309 311 312 312
299 299 300 300 300 300 300 301 300 300 300 300 300 300 300 299 299 299 299 299 300 301 301 302 301 300 300 301 301 301 301 301 301 301 301 301 301 301 301 302 302 303 303 303 302 302 303 303 303 304 303 303 304 304 302 299 297 296 296 296 296 299 300 301 302 303 303 302 302 300 298 299 301 303 305 305 305 305 305 305 305 306 308 309 309
299 299 300 300 300 300 300 300 300 300 300 300 300 299 299 300 299 299 299 299 300 301 301 301 300 300 300 300 300 300 299 299 299 299 300 301 301 300 299 298 297 298 300 302 303 302 302 302 303 303 303 303 304 303 299 297 297 297 297 297 298 299 300 301 301 301 299 299 300 301 301 300 301 303 304 304 304 304 303 303 303 304 306 306 307
299 300 300 300 300 300 300 300 300 299 299 299 299 299 299 299 299 299 300 300 301 301 301 301 300 300 300 300 300 300 299 298 297 296 296 297 298 299 298 296 294 294 295 297 299 299 298 300 303 303 301 301 303 300 297 296 297 297 298 298 298 299 299 299 299 300 298 298 301 304 304 304 304 304 304 304 304 304 303 303 304 304 306 306 306
299 300 300 300 300 300 300 300 299 299 299 298 299 298 298 298 299 299 300 301 301 301 300 300 300 300 300 300 300 300 300 300 299 298 296 295 295 296 296 295 294 294 294 294 295 296 295 296 299 300 298 298 298 297 296 296 297 297 298 298 298 299 299 299 298 299 298 298 300 303 304 305 305 305 305 305 305 305 305 304 305 305 305 306 306
299 299 299 299 299 299 300 300 299 299 299 299 298 298 298 298 299 300 300 301 301 300 299 299 299 299 299 299 299 299 300 300 300 300 299 298 297 296 295 294 294 294 294 294 294 295 295 295 296 297 296 296 296 296 296 297 297 297 298 298 298 299 299 299 299 299 299 300 302 303 304 305 305 305 304 304 303 304 304 304 304 305 305 305 305
Wind_Speed
12 15 14 14 14 14 13 13 13 14 14 15 16 15 15 16 17 16 16 14 14 15 15 15 13 12 13 15 13 10 11 12 10 10 11 11 13 12 12 14 13 12 13 13 10 8 8 10 10 9 8 8 8 7 6 6 7 5 5 5 4 4 4 5 5 6 6 6 6 8 8 6 6 5 3 5 5 3 2 1 3 4 5 7 7
10 13 13 14 15 15 14 13 14 14 14 14 14 14 14 16 18 18 16 14 13 14 14 12 13 14 13 14 13 10 11 12 10 11 11 11 14 15 14 16 15 14 13 11 10 8 9 10 9 7 7 8 8 8 6 6 7 6 6 5 5 4 4 5 6 5 5 5 6 7 6 5 7 6 4 4 4 3 3 2 2 3 3 6 7
8 9 11 15 16 15 13 13 12 12 13 13 12 13 13 14 18 19 16 14 12 12 13 12 15 17 14 13 12 8 9 11 9 10 12 13 15 17 17 17 16 15 13 12 12 11 10 8 8 7 7 7 7 8 8 7 7 7 6 6 6 5 4 4 5 5 2 1 4 4 3 4 6 6 4 2 3 4 4 3 3 3 3 4 6
9 7 4 8 14 15 13 12 12 11 11 11 10 10 11 14 18 17 15 14 13 14 15 14 17 18 14 12 11 9 8 10 9 10 12 14 14 16 16 15 14 13 13 13 12 11 9 7 7 7 7 7 7 7 8 8 7 8 7 5 6 6 5 5 5 4 2 1 1 1 1 2 3 5 6 2 3 5 4 3 4 4 4 4 4
10 8 3 9 12 14 14 13 13 12 11 11 12 11 11 13 16 15 15 15 14 15 15 17 19 16 12 10 9 9 9 9 8 7 10 12 14 16 15 13 12 10 10 10 9 8 8 8 8 8 8 8 7 7 7 6 6 8 8 7 6 4 3 5 6 4 3 2 1 2 2 2 1 6 7 4 2 4 4 5 5 4 5 5 3
9 9 9 13 15 13 14 13 13 13 12 11 12 12 12 13 14 15 16 17 16 14 14 17 18 14 11 11 9 9 8 8 7 7 11 14 15 16 14 12 10 9 8 8 8 8 8 8 8 8 8 8 8 7 7 6 6 7 8 8 7 4 1 3 6 5 3 3 2 3 3 0 4 7 5 3 3 3 4 4 5 5 5 5 5
9 10 13 15 16 14 13 14 14 12 13 12 11 11 12 13 15 16 17 18 16 14 14 14 13 12 11 11 9 7 6 7 8 9 12 13 13 12 11 11 10 9 9 8 8 9 9 9 8 9 9 9 9 8 7 8 7 6 6 6 4 4 3 3 5 5 4 4 3 3 2 1 7 9 3 3 5 3 4 5 5 5 6 7 6
10 9 12 14 13 13 13 13 13 12 16 18 18 18 16 14 16 15 15 16 13 13 15 13 13 14 13 11 10 9 9 10 11 11 10 9 10 10 9 10 10 9 9 9 9 9 9 9 8 8 8 8 8 8 8 8 8 6 5 4 4 4 5 4 4 4 5 5 5 4 3 3 8 9 5 3 4 4 4 5 6 6 7 7 7
10 9 11 12 12 13 13 13 13 15 18 20 20 21 20 17 16 14 14 17 16 16 17 16 16 17 16 14 14 12 11 12 11 10 10 9 9 10 9 10 10 9 9 8 8 8 8 8 8 7 7 7 6 6 7 6 7 7 5 5 5 5 5 4 3 3 3 3 4 5 5 6 7 8 7 5 3 4 5 5 6 7 6 6 6
10 11 11 11 12 13 14 14 14 16 17 17 17 20 23 20 17 16 18 21 21 20 21 20 18 17 17 16 17 16 13 12 12 11 11 10 10 10 10 10 10 9 9 8 8 8 7 7 7 7 7 6 5 5 6 6 6 6 6 6 6 6 6 4 4 3 3 2 3 4 3 3 4 4 4 5 3 1 3 6 8 8 6 6 5
10 11 11 12 13 13 14 14 15 15 16 17 17 19 22 21 21 23 23 21 19 17 19 19 16 15 16 15 17 18 15 14 15 15 13 12 11 11 10 9 9 9 9 9 8 8 7 7 7 7 7 6 5 5 5 5 5 5 5 5 5 6 6 5 5 4 4 4 4 3 2 2 2 1 5 5 6 4 4 6 7 7 8 7 6
11 10 10 12 12 13 14 15 15 16 16 17 17 19 20 19 21 26 26 22 18 16 15 15 14 13 13 13 14 15 15 14 16 16 14 13 13 11 10 10 10 9 9 9 9 8 7 7 7 7 6 5 5 5 4 4 4 5 5 5 5 6 6 6 6 5 5 5 4 3 3 3 2 3 6 4 7 10 9 7 8 8 7 8 7
11 10 10 10 10 11 14 15 16 16 16 17 18 18 18 19 21 24 26 24 21 17 15 15 15 14 13 13 14 14 13 14 15 15 14 13 12 11 10 10 10 9 9 9 8 8 7 7 6 5 5 5 4 4 3 3 3 4 4 4 5 6 6 6 6 6 6 5 5 4 3 5 5 4 6 4 4 8 9 7 8 8 7 8 9
9 9 9 9 9 11 13 15 16 16 17 18 17 18 18 19 21 22 23 25 23 20 19 18 16 15 14 15 15 13 13 15 14 14 13 12 11 10 10 9 9 9 9 9 9 8 7 7 6 5 4 4 4 3 3 3 2 3 3 4 5 5 5 5 5 5 6 6 5 4 4 5 4 5 7 6 5 5 6 8 8 8 8 9 10
8 8 8 8 10 13 14 15 15 15 17 17 16 17 17 17 20 20 20 22 22 22 23 19 16 16 15 15 16 14 15 15 13 13 12 11 11 10 9 9 9 9 9 10 9 8 8 7 6 5 4 4 4 4 4 4 3 3 4 4 4 4 4 4 4 4 5 6 5 5 5 4 5 6 6 5 6 5 6 8 7 7 7 7 8
7 7 8 8 11 14 14 15 15 15 17 16 15 15 15 16 18 19 19 20 21 24 24 20 17 17 15 16 18 17 17 16 13 12 11 11 12 11 10 10 10 10 10 11 10 9 8 7 6 5 5 5 5 5 5 5 5 5 6 6 5 5 5 5 4 3 3 5 5 6 7 8 6 6 5 4 5 6 7 8 8 7 7 6 6
5 6 7 8 10 11 13 15 15 15 17 16 15 15 15 15 17 19 20 20 20 22 23 21 18 17 17 19 19 19 18 16 14 14 13 13 12 11 11 11 11 11 11 11 10 9 8 7 7 7 6 6 6 6 6 6 6 6 7 7 7 6 6 5 4 3 3 3 4 4 6 8 6 5 7 6 6 6 7 7 7 7 6 5 5
4 6 7 8 9 10 12 14 14 15 16 16 16 17 15 15 17 19 20 21 20 19 20 20 20 21 22 22 21 20 18 15 15 15 15 14 13 12 12 12 11 11 10 11 10 9 8 7 7 8 7 7 7 7 7 7 7 7 7 7 7 6 5 4 3 3 3 3 4 5 5 7 6 6 7 7 7 7 7 6 6 7 7 6 6
6 7 8 9 10 11 13 13 13 15 16 17 16 15 15 15 16 18 19 20 20 18 17 18 18 18 20 21 20 18 16 15 16 15 15 15 13 12 12 11 11 10 10 11 11 10 9 7 8 8 8 8 7 7 8 8 7 8 8 7 6 5 5 4 4 4 4 4 5 6 6 8 8 7 8 8 8 8 8 8 7 6 8 9 9
3 5 6 7 9 11 12 11 11 13 14 13 13 13 15 15 15 16 16 16 18 17 15 15 15 14 15 18 18 17 16 16 16 15 15 14 13 12 12 10 10 10 10 11 11 10 9 8 8 8 8 8 8 8 8 8 8 8 7 7 6 6 5 5 5 4 4 4 5 6 7 8 9 9 10 10 9 8 6 6 7 5 5 8 12
6 4 3 1 2 4 7 8 9 8 5 8 9 10 10 9 8 10 10 10 13 15 13 12 13 13 14 17 18 16 16 16 16 15 15 14 13 12 11 10 10 10 12 12 11 10 10 9 9 8 8 9 9 9 8 8 8 7 6 6 6 6 6 6 5 5 5 5 5 6 7 9 10 11 12 10 9 7 5 6 8 7 6 6 8
11 9 6 5 4 2 1 2 4 3 7 8 7 7 3 1 2 4 5 5 6 8 10 11 10 11 14 16 17 16 15 15 15 15 14 14 13 12 11 10 9 10 12 13 11 11 9 9 9 8 8 9 9 10 9 8 7 6 6 6 6 6 6 6 6 6 6 5 5 6 8 9 10 11 11 10 9 8 7 7 6 6 7 6 5
11 10 8 9 11 9 6 3 2 6 8 4 4 2 2 4 3 1 1 4 7 7 7 10 10 10 13 15 14 15 15 15 14 14 14 14 13 12 11 10 9 10 12 12 11 11 10 9 9 8 8 9 9 10 9 7 7 7 7 7 6 6 6 6 6 7 7 7 6 7 8 9 10 10 10 9 9 8 6 7 6 4 5 4 3
9 8 8 10 14 13 8 5 2 8 9 2 1 3 6 9 7 3 5 9 12 9 7 9 10 9 11 13 10 11 15 15 15 15 14 15 14 13 12 10 9 10 11 12 11 10 10 9 8 9 9 9 10 10 9 8 7 7 8 8 7 7 7 6 5 7 8 8 7 8 8 9 9 9 8 7 7 6 4 5 6 4 5 3 1
9 9 8 8 11 11 10 8 7 8 9 7 7 7 7 9 6 2 8 12 12 11 8 8 10 9 10 10 7 8 11 12 14 15 15 15 14 13 12 11 10 10 10 11 11 10 10 9 8 9 9 10 10 10 9 9 8 8 8 8 8 8 6 5 5 6 7 7 8 8 8 9 8 7 7 6 5 4 3 4 5 5 6 6 4
9 8 7 7 7 9 11 13 12 10 9 9 8 6 6 6 1 3 7 8 6 7 5 4 10 12 12 13 13 13 12 10 11 14 14 14 14 13 13 12 10 10 10 9 10 10 10 9 9 9 9 10 10 11 10 10 9 9 9 8 8 7 6 6 5 5 5 6 6 6 7 7 7 7 6 5 4 4 3 3 3 4 5 6 7
8 7 6 6 7 8 11 13 14 13 13 12 10 8 8 7 3 3 3 1 1 2 5 9 13 16 16 16 18 19 15 10 11 13 13 13 13 12 13 12 11 10 10 9 9 10 9 9 9 8 9 10 11 11 11 10 10 9 9 8 7 7 6 6 5 5 5 5 5 5 5 5 4 4 4 4 3 4 4 4 4 5 5 4 6
8 7 6 7 7 8 10 12 13 14 15 15 13 11 10 9 8 5 2 1 2 5 12 14 14 17 18 16 18 19 15 12 13 14 12 12 12 12 11 11 11 10 10 9 9 10 10 8 8 8 9 10 11 11 11 10 10 9 8 8 7 7 6 6 5 5 5 4 4 4 4 4 3 3 3 2 2 2 2 2 3 3 4 5 5
9 8 8 8 9 9 11 12 13 14 15 14 14 13 12 12 11 8 5 3 3 7 13 15 12 13 14 13 13 16 16 15 15 15 13 11 12 12 11 11 11 10 9 8 9 10 11 9 8 8 9 10 10 10 11 10 9 9 8 7 7 6 6 6 5 5 5 5 5 5 4 4 4 4 3 2 2 2 2 2 2 3 4 6 6
9 8 8 9 9 10 11 13 13 13 14 14 14 14 14 14 14 13 10 7 6 7 10 11 10 10 11 12 11 12 13 13 13 14 14 13 12 11 10 11 11 10 8 8 9 10 10 9 8 7 7 8 7 7 10 10 9 9 8 6 7 7 6 7 7 6 7 6 6 5 5 6 5 5 5 5 4 4 4 4 4 3 4 6 7
9 8 8 8 9 11 13 14 15 15 15 15 14 14 14 15 16 16 15 11 9 9 8 8 9 10 11 13 13 12 10 9 9 11 13 15 15 14 12 11 11 11 9 7 8 9 9 8 8 7 7 6 4 4 9 10 9 10 8 5 5 7 7 7 8 8 7 7 7 6 6 6 6 5 5 5 4 4 5 6 7 6 8 9 10
9 9 9 9 10 12 13 15 15 16 16 15 13 14 15 16 16 15 15 15 15 14 12 10 9 10 11 13 13 13 12 10 9 10 13 16 17 17 16 13 13 13 11 8 7 8 8 7 7 6 6 5 2 2 8 10 8 9 8 4 3 6 7 7 8 8 8 7 7 7 6 6 6 6 6 5 6 6 6 7 8 9 10 11 12
9 9 10 10 11 12 14 15 15 16 17 16 16 15 14 15 16 15 15 16 17 18 17 14 11 11 11 11 12 13 13 12 10 10 13 15 16 17 16 14 12 12 11 9 7 7 8 7 6 5 4 3 1 3 6 9 9 9 9 7 5 6 7 8 8 8 8 8 8 8 8 7 8 8 7 6 7 7 8 9 10 11 12 14 14
10 10 10 11 12 13 14 15 16 16 16 16 17 17 15 14 16 17 18 17 17 19 20 19 16 13 10 11 12 13 13 12 10 10 12 14 15 15 15 13 11 10 10 8 6 7 8 7 6 6 3 2 4 5 6 7 9 9 10 10 9 8 7 8 9 9 9 10 9 9 9 10 10 10 9 8 8 8 8 9 11 11 12 14 15
10 10 11 13 13 13 15 16 16 16 16 15 15 15 15 16 17 18 18 17 18 20 21 21 20 17 13 11 12 12 12 12 12 11 10 10 13 14 12 8 7 7 7 6 5 6 8 7 7 5 4 5 7 7 7 8 10 10 11 11 12 10 10 10 11 11 12 11 11 10 11 11 11 11 10 10 10 10 10 11 11 11 12 14 15
11 12 13 14 14 14 15 16 16 17 17 16 15 15 16 18 17 18 18 17 19 21 21 20 20 19 17 13 11 11 12 13 13 12 11 10 13 15 12 7 5 6 7 6 5 6 6 6 5 5 5 8 9 8 8 9 9 10 11 11 11 11 11 12 14 16 16 14 12 12 12 13 14 12 10 10 11 11 11 12 13 13 14 16 16
13 13 14 14 15 16 17 17 18 19 18 16 16 15 17 18 18 18 18 18 19 20 19 19 18 18 17 15 14 14 13 14 13 11 11 11 12 13 12 9 8 8 8 8 7 7 6 6 7 6 5 7 6 6 7 7 8 9 10 10 9 9 11 13 15 17 15 12 12 13 14 14 12 9 7 9 11 11 12 13 14 15 16 16 16
13 14 14 15 15 16 18 19 20 20 18 16 16 16 18 19 19 18 18 19 20 19 18 17 16 16 16 16 15 15 14 13 13 11 10 10 10 10 10 9 10 9 9 10 9 9 9 8 8 8 6 6 4 4 5 5 6 7 7 8 8 9 13 16 15 14 13 12 12 14 15 12 9 7 6 8 10 11 12 13 13 14 16 16 14
15 15 16 15 15 17 20 21 21 19 17 16 16 18 19 19 18 17 18 18 18 17 17 16 16 16 16 16 16 16 15 14 13 12 10 9 9 9 8 9 11 10 10 10 10 10 9 9 9 8 5 2 2 2 3 3 3 4 5 7 7 8 13 15 13 11 11 11 11 11 9 8 8 8 7 9 11 13 13 12 11 11 13 14 13
14 15 16 16 18 20 20 20 19 17 15 15 15 17 18 17 16 17 18 17 15 14 15 15 15 16 16 16 17 17 16 15 13 13 12 10 9 9 8 7 8 10 11 10 10 11 10 10 10 10 7 4 3 2 2 1 1 2 4 4 4 5 9 10 10 11 12 12 12 10 5 4 7 7 8 10 13 15 15 13 11 9 10 11 9
12 12 12 13 16 17 17 16 17 15 14 13 14 15 15 15 15 16 16 15 14 13 14 14 14 15 16 16 16 16 16 15 13 13 13 13 12 11 10 10 9 9 11 11 10 10 11 10 9 9 8 6 5 5 4 4 3 1 1 2 2 4 5 6 7 9 10 10 8 4 1 2 6 7 8 9 10 11 13 13 12 10 11 10 7
11 11 10 10 12 14 14 14 14 14 13 13 13 14 14 14 15 15 13 12 12 13 13 13 14 14 14 15 15 15 14 14 13 12 12 12 11 10 10 10 10 10 10 11 10 10 10 10 9 8 8 7 6 5 5 5 5 5 3 2 1 2 3 3 3 5 7 7 3 1 2 4 6 7 8 8 7 8 9 11 12 13 13 13 11
11 11 10 10 11 13 13 13 12 12 12 12 13 13 13 13 14 13 11 11 11 11 11 12 13 13 13 13 14 14 14 13 12 11 10 9 9 8 8 8 8 8 8 8 8 9 9 10 9 7 7 6 5 5 6 5 5 5 4 3 2 2 2 2 2 5 7 5 1 2 3 5 7 9 9 8 8 8 8 9 11 12 13 15 14
10 11 10 10 11 12 12 12 11 11 11 11 12 13 13 13 13 12 11 11 10 10 10 10 11 11 12 13 13 13 13 13 12 11 10 10 9 8 7 7 5 6 6 5 5 6 7 8 8 7 6 6 5 6 7 6 5 5 5 5 4 4 4 3 2 6 8 6 3 4 8 9 10 11 11 10 10 10 10 10 10 10 11 13 14
10 10 9 9 10 10 11 11 11 11 11 11 11 12 12 12 11 11 11 11 10 10 10 9 9 9 10 12 12 13 13 13 12 11 11 11 10 9 9 8 7 7 6 5 4 4 4 5 5 5 5 4 3 3 5 8 7 6 6 6 5 5 5 4 4 6 8 9 9 11 11 12 12 12 12 11 11 11 12 11 10 10 10 10 11
8 9 8 8 9 9 10 10 10 10 10 10 10 11 11 10 9 10 10 10 10 10 10 9 10 9 9 9 10 11 12 11 11 11 11 10 10 10 9 9 8 7 7 6 6 5 5 4 4 3 3 3 2 2 5 8 8 7 6 6 6 6 7 7 6 7 9 10 11 12 12 12 12 12 11 10 9 11 13 12 11 11 9 8 9
7 7 7 7 8 9 9 10 10 10 10 10 10 10 10 9 9 9 9 9 9 9 9 9 9 9 10 10 11 11 10 10 10 10 10 10 10 10 10 10 9 8 7 7 6 6 6 5 4 3 2 1 2 3 6 8 9 8 8 8 8 8 9 9 8 8 9 11 13 14 14 14 13 12 11 10 9 11 13 13 12 12 9 8 10
6 7 7 8 9 9 9 9 10 10 10 10 10 10 10 9 9 9 8 8 8 8 9 9 9 9 9 10 10 11 11 11 11 11 11 11 11 11 11 12 12 10 8 8 7 7 7 6 5 5 3 2 3 6 7 9 10 10 11 11 10 9 9 9 9 10 12 12 12 13 13 12 12 11 11 10 10 10 11 11 11 10 9 8 10
6 6 7 8 8 9 9 9 9 9 10 10 10 10 9 9 9 8 8 8 8 8 8 8 8 9 9 9 9 9 10 11 12 13 14 14 12 11 11 12 12 12 11 9 8 9 8 7 7 7 7 5 5 7 8 8 8 9 11 11 11 11 12 11 11 12 13 12 10 10 9 9 8 8 7 7 6 7 8 7 6 7 7 8 9
5 5 6 7 7 8 8 8 8 8 8 9 8 8 8 8 8 7 6 6 6 7 7 8 8 8 8 8 8 8 7 8 9 10 12 13 13 13 12 11 11 12 12 11 11 12 10 8 8 9 8 7 6 7 8 7 6 8 8 9 10 11 12 12 12 12 12 12 9 9 8 8 7 7 6 5 5 5 5 5 5 5 7 8 8
5 6 6 6 6 7 7 8 8 8 7 7 7 7 7 7 7 6 5 5 5 6 7 8 8 8 7 7 8 7 7 7 6 6 7 9 10 13 15 14 13 13 13 14 14 14 12 10 8 8 7 6 6 6 6 6 6 7 7 8 8 8 9 10 10 9 9 10 9 8 7 7 7 7 8 8 9 9 9 8 7 7 7 7 8
Wind_Direction
185 173 172 164 163 167 155 151 149 143 147 151 154 154 155 157 155 159 166 169 173 176 178 183 189 189 193 204 207 206 205 204 195 187 192 193 182 179 184 183 186 195 187 181 187 180 177 183 171 157 155 155 152 154 155 146 149 155 148 151 164 162 156 152 153 158 155 145 134 121 117 124 129 141 160 147 148 164 190 203 123 125 132 129 130
189 163 166 169 167 166 157 155 158 154 151 153 154 149 150 158 161 164 170 174 176 177 178 180 188 192 192 199 202 203 202 198 193 183 181 190 185 180 186 189 188 189 184 179 179 180 194 183 157 155 159 155 152 144 139 142 151 160 157 161 170 169 170 159 160 179 182 169 156 133 122 124 120 120 127 133 140 142 136 124 111 101 93 117 124
208 174 175 177 171 165 159 156 159 159 157 151 145 147 151 162 169 169 171 176 180 181 179 178 192 196 195 200 199 195 196 192 191 185 178 184 181 176 183 187 186 183 176 178 178 179 190 174 148 159 154 141 142 139 150 164 159 160 171 176 172 172 177 171 183 209 242 236 180 159 142 145 129 120 123 119 118 120 120 124 129 120 105 113 121
211 181 185 202 182 170 164 160 158 163 163 145 138 154 165 175 178 173 172 179 188 189 181 183 198 201 199 201 199 194 190 186 192 186 178 183 180 172 175 180 182 181 178 181 180 171 168 159 151 156 145 137 144 152 165 171 164 166 177 181 183 187 179 173 189 218 258 322 160 139 156 189 152 133 138 114 91 115 119 124 132 142 139 127 117
208 159 146 244 207 174 172 167 163 168 160 143 146 166 183 190 187 184 184 183 189 195 185 182 192 195 193 191 193 194 187 185 195 187 177 183 181 174 169 172 179 181 181 179 168 159 156 152 151 150 146 146 151 161 164 165 173 176 175 181 202 219 190 175 183 209 223 192 133 122 164 230 137 138 144 125 92 118 123 126 128 130 129 127 126
210 163 161 231 221 186 179 173 175 174 153 143 153 169 187 193 187 181 179 179 186 196 187 179 183 182 179 181 186 186 184 192 193 187 190 187 180 173 164 167 178 172 170 167 156 156 154 149 151 153 154 155 157 160 158 167 182 181 177 185 207 227 225 193 188 196 210 199 199 160 150 13 135 150 156 133 128 118 115 122 113 111 115 116 120
204 185 173 212 214 191 182 180 188 169 136 140 153 171 197 197 183 172 170 178 186 189 183 177 179 178 174 179 187 181 178 197 199 199 201 188 171 165 160 165 170 161 158 158 154 154 150 147 152 155 157 159 160 158 159 173 180 176 179 183 196 198 192 227 205 187 193 202 215 178 133 95 145 154 170 149 145 130 119 123 108 99 100 98 102
180 191 184 198 197 184 180 182 185 154 142 161 161 168 192 193 181 169 168 184 185 178 181 178 177 179 173 172 185 190 186 192 196 199 197 180 163 161 163 163 159 155 153 152 152 151 149 148 150 152 155 159 159 157 163 173 171 163 168 172 182 188 190 234 240 198 200 199 201 194 167 166 163 160 178 181 160 151 144 132 120 110 97 92 92
165 185 194 188 178 177 177 173 166 147 156 174 163 161 175 183 184 168 161 180 180 174 180 178 173 174 169 169 180 188 190 186 182 189 191 180 169 161 158 156 151 150 150 148 148 146 145 143 145 147 144 148 154 152 155 158 156 155 167 181 187 189 191 227 245 217 222 212 208 213 191 180 174 164 171 179 159 149 156 149 140 133 113 100 98
175 182 188 177 170 174 173 168 160 148 156 172 164 160 167 172 175 165 166 181 180 174 178 177 173 171 167 174 180 177 180 182 179 189 194 181 167 159 154 152 149 146 142 141 137 136 138 136 135 136 130 134 139 134 138 140 144 152 166 178 182 183 190 207 211 204 222 224 215 220 215 199 163 146 177 163 124 116 163 150 150 146 133 121 117
176 175 177 169 170 171 168 167 164 156 157 164 161 161 166 164 159 159 168 182 183 179 178 174 172 171 167 174 181 173 172 181 182 187 187 174 163 157 152 149 144 140 136 132 129 128 130 129 129 129 125 127 129 126 136 143 151 163 171 181 182 181 188 197 202 211 220 214 209 203 221 238 112 147 236 175 147 183 172 145 158 160 142 129 126
167 168 170 166 168 169 170 171 170 169 166 164 161 161 166 167 162 163 169 182 189 183 177 170 165 166 166 174 180 168 168 183 186 183 178 168 160 154 151 148 139 137 134 129 128 130 129 125 125 126 124 125 126 128 139 150 161 170 179 190 193 191 189 192 201 213 214 209 219 218 208 216 176 218 251 217 164 173 162 150 165 162 140 127 134
165 170 168 168 174 173 177 175 175 178 174 170 167 165 169 172 173 171 172 179 182 178 175 171 163 161 166 177 176 165 178 194 187 178 171 163 160 154 151 149 142 140 139 137 136 135 134 127 123 123 123 124 122 122 132 143 154 162 170 183 191 194 191 190 200 206 203 201 207 206 207 215 201 203 231 222 167 166 156 151 156 150 137 132 141
175 178 174 180 183 181 185 182 178 176 172 173 172 171 172 173 176 176 174 175 174 173 177 172 163 161 167 173 168 169 195 201 183 173 169 163 160 154 149 148 145 142 141 145 147 142 135 129 125 124 124 129 127 125 133 131 139 150 153 169 180 179 181 188 194 188 188 193 191 188 216 223 187 193 214 193 155 158 152 152 152 143 140 143 145
194 190 186 192 192 190 188 184 181 173 169 174 178 177 177 177 181 179 172 171 170 171 174 171 165 166 170 175 170 176 198 196 176 171 170 160 154 151 149 148 146 145 143 145 148 143 133 130 132 132 134 140 139 142 146 134 139 144 135 145 160 155 156 161 162 169 175 179 181 180 192 198 179 194 210 172 150 157 151 154 157 146 143 148 147
202 197 189 188 187 185 179 179 183 178 175 180 183 183 182 183 185 178 168 169 170 169 168 167 167 167 171 175 171 177 191 186 171 167 162 153 150 149 149 146 143 142 141 142 144 141 137 139 143 143 146 150 146 150 151 140 138 135 129 134 139 137 136 133 138 153 163 173 183 176 170 174 175 176 168 137 128 138 143 152 160 157 154 152 145
194 187 176 174 177 176 176 180 184 181 180 183 186 186 186 188 188 178 170 171 173 169 166 166 166 168 173 175 175 178 181 175 162 156 152 147 147 146 141 139 139 138 138 140 142 141 143 145 143 146 149 148 148 149 146 142 140 135 134 138 136 136 136 133 139 147 146 171 181 170 165 165 160 151 146 130 117 128 144 157 165 161 158 153 145
192 189 177 172 170 173 181 184 184 181 181 184 188 187 185 189 190 182 174 173 174 170 168 171 169 170 176 179 178 174 166 161 155 150 147 146 146 143 140 141 142 142 140 140 143 145 147 145 141 145 147 146 150 148 143 142 142 139 139 140 138 139 142 144 152 150 147 171 176 173 165 151 142 137 136 128 125 135 146 155 156 152 157 160 145
181 184 183 180 176 178 185 187 183 183 187 188 187 185 182 186 193 191 182 175 175 172 168 169 167 167 172 172 169 161 153 153 154 149 145 146 146 142 142 146 145 144 144 144 149 151 150 146 145 148 150 151 151 147 147 148 147 146 146 148 150 153 155 155 159 159 162 177 177 172 157 145 147 148 141 136 137 148 162 165 153 149 161 159 150
162 167 180 180 175 177 181 186 186 189 191 179 173 182 187 189 194 196 189 177 175 176 173 170 165 162 164 162 159 155 151 150 150 149 147 148 149 147 148 151 150 149 151 153 156 155 152 152 151 152 155 158 157 155 156 156 154 156 158 160 163 167 163 156 159 162 161 168 171 164 151 149 157 155 146 143 145 155 167 149 130 129 145 151 157
36 31 335 295 155 164 169 175 184 190 165 134 164 203 200 192 198 204 208 197 182 177 176 173 167 163 165 164 158 152 148 146 145 147 149 149 148 148 151 153 155 154 155 159 160 156 156 156 155 156 158 161 165 164 164 163 163 166 167 163 166 170 160 149 153 154 143 146 159 158 152 153 158 154 148 146 146 149 142 128 130 140 140 147 166
33 30 360 344 344 342 74 155 165 104 70 105 176 229 233 161 203 216 233 228 209 195 184 179 175 169 167 166 160 151 145 144 146 146 149 152 150 149 151 151 155 158 158 162 160 156 160 160 158 159 157 161 169 168 168 172 169 168 164 163 171 168 150 141 147 146 137 138 148 152 150 151 154 152 151 151 151 154 151 143 144 145 141 150 165
31 26 15 2 351 352 360 307 201 100 90 136 199 236 30 61 98 140 227 212 222 245 220 188 182 176 171 169 161 152 145 142 146 148 150 154 154 152 151 151 157 162 162 163 161 160 164 164 162 161 156 161 167 168 171 173 169 167 167 170 170 153 140 144 149 143 137 135 138 144 142 144 150 154 158 159 160 173 170 150 147 138 135 153 164
36 28 27 8 349 351 355 310 315 97 108 140 10 46 54 60 76 143 216 209 201 213 221 196 180 166 161 163 156 145 144 145 151 154 151 154 157 154 152 155 161 165 166 167 165 165 167 167 167 165 160 161 162 164 170 169 166 167 166 164 159 149 149 151 139 130 131 131 135 140 138 139 147 154 161 164 167 184 180 151 155 152 144 162 226
34 34 35 16 350 350 356 347 8 73 105 99 62 46 60 74 79 183 213 211 198 194 209 201 178 157 135 137 137 136 144 150 156 156 152 154 157 155 154 158 163 165 167 169 168 170 171 170 172 170 165 162 161 162 165 163 161 162 161 159 154 152 152 144 126 120 123 126 133 140 140 142 148 151 160 170 172 178 181 168 171 173 172 178 193
38 41 38 24 12 9 10 11 21 44 70 81 77 57 62 90 87 274 226 213 199 193 199 131 134 141 131 134 148 154 155 159 159 154 154 157 158 157 157 159 164 166 166 169 171 171 171 173 175 175 169 165 163 163 162 161 159 157 156 155 151 151 147 139 135 130 124 127 133 136 139 145 155 161 169 179 172 174 196 204 209 224 211 183 182
52 50 42 35 37 33 26 24 29 42 52 59 70 74 68 75 56 336 273 229 45 149 146 110 121 139 143 149 158 160 155 155 157 153 154 158 159 161 162 160 164 166 163 168 171 168 170 174 173 174 171 167 165 164 162 162 160 156 153 152 152 153 147 142 145 140 132 134 134 136 143 151 161 166 173 185 184 194 218 226 231 250 255 222 195
60 53 48 46 44 37 33 33 36 45 54 54 56 65 68 68 58 33 7 7 36 119 133 133 140 150 151 150 155 158 156 153 153 150 151 158 161 162 162 161 163 164 164 170 170 166 169 171 171 174 171 166 166 166 165 165 163 160 156 156 159 160 156 154 154 148 141 141 141 142 148 151 154 153 148 141 153 200 231 254 262 259 259 255 241
65 57 54 48 42 39 36 37 42 45 51 55 52 54 59 59 55 53 65 99 106 116 127 135 144 150 149 143 145 155 158 152 147 145 144 148 156 162 163 160 160 159 161 169 169 167 170 169 169 170 164 163 166 164 167 170 164 162 164 165 168 170 171 171 170 166 166 167 163 155 156 166 171 186 194 180 192 236 268 307 309 306 288 275 267
67 60 56 49 45 49 47 45 47 48 52 56 55 55 56 52 51 54 62 86 111 113 119 132 139 139 138 132 128 140 151 149 146 147 142 134 135 146 151 152 154 154 156 164 166 166 167 165 162 156 153 161 164 162 172 173 160 160 168 171 176 185 189 188 189 188 185 188 188 181 190 202 200 205 214 213 221 233 246 258 263 276 283 284 287
66 61 56 49 45 48 49 49 47 47 51 54 55 56 54 52 54 54 56 71 94 99 98 112 129 133 133 132 129 132 146 153 150 148 144 139 134 131 124 122 129 134 135 144 155 160 162 160 158 155 152 157 158 171 183 181 167 166 173 178 192 202 205 203 203 203 201 203 207 206 207 214 218 218 220 231 242 241 244 252 258 263 262 267 281
64 59 50 43 42 42 44 48 48 47 48 46 49 54 50 52 59 59 60 68 79 85 82 86 109 118 122 134 138 135 141 149 150 151 154 152 148 141 129 115 112 121 129 131 129 132 139 144 148 151 148 148 153 189 189 188 186 185 187 195 219 216 214 217 218 217 217 215 216 221 220 221 228 230 231 243 257 262 265 264 263 263 262 261 264
60 56 50 45 45 45 43 45 46 49 51 48 49 54 51 51 60 66 68 66 69 76 76 73 85 98 106 122 130 129 134 140 144 152 155 155 153 147 137 125 117 120 130 138 135 130 131 132 135 135 126 130 195 199 188 195 206 214 216 221 241 249 238 233 232 230 231 230 226 225 224 225 233 238 241 248 255 264 271 274 275 271 268 266 262
57 55 53 51 52 51 48 47 44 46 54 56 54 54 55 57 63 67 67 60 59 68 69 66 69 80 96 118 125 125 131 136 139 148 151 150 151 144 133 130 130 124 120 125 141 153 154 149 148 148 138 193 223 213 203 212 223 232 234 231 239 258 258 247 244 241 239 238 233 231 232 232 234 236 236 238 244 255 265 270 276 277 271 270 269
60 60 53 47 47 48 47 47 43 42 49 55 56 57 62 66 65 62 61 59 59 62 61 60 63 66 74 96 116 126 136 141 143 149 150 145 152 156 151 144 140 135 130 126 130 154 167 170 168 169 191 230 236 229 216 220 230 236 240 238 241 253 259 256 256 252 248 244 238 238 243 244 245 244 236 230 230 242 258 264 265 267 268 269 270
64 61 51 41 37 39 44 46 46 45 45 47 50 56 65 68 67 64 61 60 60 57 54 55 59 61 62 66 81 102 123 135 137 145 152 149 155 165 171 173 156 144 146 147 148 156 162 168 164 165 200 222 232 236 226 221 229 236 244 247 250 257 258 258 261 257 251 248 245 244 247 250 252 250 243 241 241 242 254 265 267 266 268 269 266
63 57 51 46 40 39 42 47 47 44 43 44 47 54 63 66 67 66 62 60 59 55 52 53 57 61 62 61 66 78 96 112 117 125 139 143 150 158 165 174 173 164 154 150 148 139 133 141 148 152 185 212 221 235 237 233 232 237 245 247 249 261 263 259 262 262 257 254 254 253 252 252 257 255 243 251 257 254 256 265 271 272 272 268 259
54 50 49 46 42 41 44 47 47 43 40 43 49 55 59 59 59 60 60 58 55 51 50 52 54 57 59 60 64 69 76 88 93 96 109 122 130 139 152 166 168 161 153 148 138 122 119 130 139 148 179 205 212 219 225 228 229 235 244 242 244 262 266 261 260 264 266 267 267 262 254 253 272 289 265 250 253 256 262 269 273 275 276 273 261
54 53 51 46 47 50 48 45 44 39 36 41 50 55 57 55 53 53 55 56 52 47 46 49 52 54 57 59 61 63 65 71 75 77 85 98 106 110 130 155 155 144 135 134 130 119 113 114 111 114 132 168 182 188 195 212 222 236 251 248 251 271 276 273 274 278 281 283 293 299 279 255 271 292 281 263 257 256 260 268 273 275 277 279 272
62 60 57 53 54 55 48 40 35 31 31 39 49 55 57 56 53 51 51 50 48 45 45 47 49 51 53 54 55 56 59 60 66 75 78 79 86 91 95 115 131 127 117 115 121 121 117 115 120 125 127 115 103 125 137 151 215 258 262 249 257 290 297 299 302 303 301 297 306 326 335 249 259 282 288 281 271 264 261 262 267 273 274 278 277
61 62 64 63 62 59 51 41 35 32 32 39 48 54 55 55 55 53 51 47 43 44 46 47 48 49 49 50 49 50 53 54 61 75 78 73 76 83 82 80 87 100 106 107 107 110 110 109 117 133 135 118 99 96 92 89 93 90 214 201 219 265 288 311 318 313 309 309 313 336 45 242 269 286 296 293 283 273 266 260 259 262 263 267 271
65 60 60 64 67 65 59 50 41 37 36 39 49 55 53 53 53 50 49 49 45 44 45 45 48 48 49 51 50 49 51 52 55 66 72 69 69 71 76 82 86 93 103 108 104 103 105 102 99 105 112 108 101 94 87 81 79 74 76 105 190 245 254 284 316 306 297 303 317 170 200 267 286 287 290 292 286 279 273 265 261 260 259 261 263
72 66 57 54 57 58 56 51 44 40 39 40 48 54 52 51 48 42 40 45 48 48 47 45 46 47 47 50 52 51 52 53 53 58 66 67 64 63 69 84 99 104 107 111 113 117 118 113 109 107 103 97 83 68 62 61 61 57 50 46 29 355 313 279 304 323 313 313 24 166 236 278 290 289 291 293 289 286 283 277 271 266 260 257 255
49 56 54 54 55 54 54 53 48 45 42 41 46 51 49 46 42 36 35 41 45 49 52 49 49 50 51 52 53 54 56 57 54 54 58 58 57 59 61 63 75 94 103 106 114 125 128 122 121 122 115 98 67 43 33 32 37 43 38 31 20 357 337 308 316 337 328 319 308 295 294 294 293 292 293 293 294 294 292 290 287 279 269 260 251
35 40 42 48 53 54 53 53 49 45 45 45 45 48 49 44 37 34 36 40 42 45 51 53 53 56 58 60 61 59 59 57 54 53 54 51 49 50 51 50 51 59 70 76 77 86 101 107 110 113 109 100 83 57 34 18 10 10 13 8 1 355 346 328 316 316 310 300 295 297 302 302 298 295 292 290 290 290 288 290 288 282 275 264 249
35 31 30 36 47 50 48 49 47 43 44 46 45 46 48 44 40 40 39 39 42 46 49 53 55 58 60 65 68 67 62 59 59 60 58 54 51 50 48 47 50 54 59 62 57 54 63 75 78 78 77 80 102 91 47 21 4 355 353 347 346 350 344 335 331 324 319 314 308 307 314 317 315 311 305 297 285 278 281 286 285 278 270 256 244
32 28 28 35 43 44 41 43 42 38 40 44 44 44 43 40 41 43 42 42 44 49 53 55 56 60 63 65 68 68 67 64 61 62 63 60 56 57 53 44 38 38 47 58 60 55 54 55 52 48 45 66 115 85 42 14 360 358 359 357 360 359 348 342 340 332 328 325 316 312 316 316 315 315 312 305 293 282 284 289 291 289 282 260 247
36 34 38 45 48 45 40 37 34 31 33 38 40 40 38 36 38 42 45 49 51 54 61 63 60 62 64 67 69 69 70 67 62 60 62 59 54 55 55 51 45 41 40 43 47 49 45 32 26 28 15 360 73 63 32 1 349 349 351 354 356 351 341 338 330 320 322 324 316 311 314 315 315 319 320 316 310 305 305 303 297 293 285 263 251
57 49 49 52 51 46 41 38 33 30 31 32 34 35 32 33 36 39 44 53 55 57 62 64 64 65 66 68 72 74 77 78 72 69 68 66 62 61 61 58 57 59 59 54 49 48 42 26 21 27 20 6 16 18 1 343 337 336 336 340 342 338 334 332 326 320 323 326 315 298 295 298 302 305 308 306 304 309 318 316 298 280 272 265 260
75 70 64 60 55 47 40 35 32 34 36 37 35 34 33 32 34 38 46 54 58 64 66 62 60 60 61 66 72 73 79 87 88 87 84 78 68 60 60 63 66 66 66 66 64 61 54 44 37 32 23 10 356 345 333 325 324 325 325 327 328 328 329 328 325 323 324 321 307 287 277 277 279 280 284 292 292 288 291 296 297 293 281 273 267
51 55 50 48 51 51 44 36 32 32 38 43 42 39 40 41 40 44 54 58 65 75 78 76 70 59 52 62 72 70 69 74 82 95 106 104 87 65 55 56 63 66 65 64 62 57 52 49 47 38 22 7 352 339 333 330 327 323 323 322 321 329 339 340 336 330 321 307 294 287 287 287 287 289 295 301 303 303 302 299 300 303 293 277 268